User: anonymous   Login
Location: Newark
(23.3970°S, 47.6010°W)
Time: 22:14:30
(UTC+00:00)
Language:

Altair - Orbit

View from above orbital plane
View from above orbital plane
View from above satellite
View from above satellite

Ground track
Ground track

The orbit data is extracted from the following two-line orbital elements,

1    50U 60009B   20053.65808141 -.00000028 +00000-0 +54140-3 0  9991
2    50 047.2309 120.6607 0113331 340.2639 019.3785 12.20109002656088
Epoch (UTC): 22 February 2020 15:47:38
Eccentricity: 0.0113331
inclination: 47.2309°
perigee height: 1502 km
apogee height: 1682 km
right ascension of ascending node: 120.6607°
argument of perigee: 340.2639°
revolutions per day: 12.20109002
mean anomaly at epoch: 19.3785°
orbit number at epoch: 65608

The dashed part of the orbit path shows where the satellite is in the earth's shadow,  

DLR